Terminal Aerodrome Forecast
Issued by NWS Sioux Falls, SD

Home | Current Version | Previous Version | Text Only | Print | Product List | Glossary Off
Versions: 1 2 3 4 5 6 7 8 9 10 11 12

000
FTUS43 KFSD 232320
TAFHON
TAF
KHON 232320Z 2400/2424 32018G30KT P6SM SCT070
     FM240100 33014KT P6SM FEW250
     FM240300 32006KT P6SM SKC
     FM241300 28011KT P6SM FEW250
     FM241500 31014G23KT P6SM FEW250=

USA.gov is the U.S. government's official web portal to all federal, state and local government web resources and services.